Flag for Luxembourg Weather past 2 weeks in Esch-sur-Alzette, Luxembourg

50 °F

Passing clouds.

Feels Like: 49 °F
Forecast: 45 / 61 °F
Wind: 3 mph from North

Location: Luxembourg Airport

Current Time: Oct 8, 2015 at 10:13:30 PM

Latest Report: Oct 8, 2015 at 9:50 PM

Visibility: N/A

Pressure: 30.18 "Hg

Humidity: 88%

Dew point: 46 °F

Location of Esch-sur-AlzetteLocation

Historic Weather in Esch-sur-Alzette — Graph


Esch-sur-Alzette temperature yesterday

Maximum temperature yesterday: 59 °F (at 12:20 AM)
Minimum temperature yesterday: 52 °F (at 6:20 PM)
Average temperature yesterday: 54 °F

Past Weeks' High & Low Weather Summary

High64 °F (Oct 2, 3:20 PM)100% (Sep 24, 2:50 AM)30.57 "Hg (Sep 24, 2:50 AM)
Low43 °F (Oct 1, 6:50 AM)39% (Oct 1, 2:50 PM)29.62 "Hg (Oct 6, 2:50 PM)
Average54 °F79%30.16 "Hg
* Reported Sep 23 8:20 PM — Oct 8 8:50 PM, Esch-sur-Alzette, Weather by CustomWeather, © 2015

Note: Actual official high and low records may vary slightly from our data, if they occured in-between our weather recording intervals... More about our weather records


Esch-sur-Alzette weather history for previous 24 hours

Time TempWeatherWind HumidityBarometerVisibility
8:50 PM
Thu, Oct 8
50 °FClear.2 mph94%30.15 "Hg10 mi
8:20 PM50 °FClear.2 mph88%30.15 "Hg10 mi
7:50 PM50 °FSunny.3 mph88%30.15 "Hg10 mi
7:20 PM50 °FPartly sunny.2 mph94%30.15 "HgN/A
6:50 PM52 °FPartly sunny.3 mph82%30.15 "HgN/A
6:20 PM54 °FPartly sunny.3 mph77%30.15 "HgN/A
5:50 PM54 °FPartly sunny.3 mph77%30.15 "HgN/A
5:20 PM54 °FPartly sunny.5 mph77%30.15 "HgN/A
4:50 PM54 °FPartly sunny.3 mph77%30.15 "HgN/A
4:20 PM55 °FPartly sunny.5 mph72%30.15 "HgN/A
3:50 PM55 °FPartly sunny.5 mph72%30.15 "HgN/A
3:20 PM55 °FOvercast.3 mph67%30.15 "HgN/A
2:50 PM55 °FPartly sunny.5 mph72%30.15 "HgN/A
2:20 PM55 °FPartly sunny.5 mph72%30.15 "HgN/A
1:50 PM55 °FPartly sunny.5 mph72%30.15 "HgN/A
1:20 PM55 °FPartly sunny.5 mph72%30.15 "HgN/A
12:50 PM54 °FBroken clouds.5 mph72%30.15 "HgN/A
12:20 PM54 °FBroken clouds.2 mph77%30.15 "HgN/A
11:50 AM54 °FPartly sunny.6 mph77%30.12 "HgN/A
11:20 AM52 °FBroken clouds.6 mph88%30.12 "HgN/A
10:50 AM52 °FBroken clouds.5 mph82%30.12 "HgN/A
10:20 AM52 °FBroken clouds.6 mph88%30.12 "HgN/A
9:50 AM52 °FBroken clouds.6 mph88%30.12 "HgN/A
9:20 AM50 °FBroken clouds.6 mph94%30.09 "HgN/A
8:50 AM50 °FPartly sunny.6 mph94%30.09 "HgN/A
8:20 AM50 °FClear.3 mph94%30.09 "Hg10 mi
7:50 AM50 °FPassing clouds.2 mph94%30.09 "HgN/A
7:20 AM50 °FLow clouds.5 mph94%30.09 "HgN/A
6:50 AM50 °FPassing clouds.3 mph94%30.09 "HgN/A
6:20 AM50 °FPassing clouds.6 mph94%30.07 "HgN/A
5:20 AM50 °FPassing clouds.3 mph100%30.07 "HgN/A
4:50 AM50 °FPartly cloudy.3 mph100%30.07 "HgN/A
4:20 AM50 °FPassing clouds.3 mph100%30.07 "HgN/A
3:50 AM50 °FPartly cloudy.3 mph100%30.07 "Hg6 mi
3:20 AM50 °FPartly cloudy.3 mph100%30.07 "HgN/A
2:50 AM50 °FOvercast.3 mph100%30.07 "HgN/A
2:20 AM52 °FPartly cloudy.5 mph94%30.07 "HgN/A
1:50 AM52 °FPartly cloudy.5 mph94%30.07 "HgN/A
1:20 AM52 °FPartly cloudy.6 mph94%30.07 "HgN/A
12:50 AM52 °FMostly cloudy.5 mph94%30.07 "HgN/A
12:20 AM52 °FLow clouds.6 mph94%30.07 "HgN/A
11:50 PM
Wed, Oct 7
52 °FClear.7 mph94%30.07 "Hg10 mi
10:50 PM52 °FPassing clouds.7 mph94%30.07 "HgN/A
10:20 PM52 °FPassing clouds.7 mph94%30.07 "HgN/A
Weather by CustomWeather, © 2015

See weather overviewHow to use our weather pages